GFSMW_prec_precacc24_351.txt.gz
Total_Precipitation_Accumulation
0.03 0.06 0.07 0.07 0.26 0.27 0.25 0.21 0.31 0.19 0.03 0.01 0.00 0.00 0.00 0.00 0.00 0.00 0.00 0.00 0.00 0.00 0.00 0.00 0.00 0.00 0.00 0.00 0.00 0.00 0.00 0.00 0.00 0.00 0.00 0.00 0.00 0.00 0.00 0.00 0.00 0.00 0.00
0.03 0.05 0.07 0.05 0.11 0.14 0.14 0.14 0.13 0.08 0.02 0.01 0.00 0.00 0.00 0.00 0.00 0.00 0.00 0.00 0.00 0.00 0.00 0.00 0.00 0.00 0.00 0.00 0.00 0.00 0.00 0.00 0.00 0.00 0.00 0.00 0.00 0.00 0.00 0.00 0.00 0.00 0.00
0.04 0.03 0.05 0.04 0.05 0.07 0.07 0.08 0.09 0.04 0.00 0.00 0.00 0.00 0.00 0.00 0.00 0.00 0.00 0.00 0.00 0.00 0.00 0.00 0.00 0.00 0.00 0.00 0.00 0.00 0.00 0.00 0.00 0.00 0.00 0.00 0.00 0.00 0.00 0.00 0.00 0.00 0.00
0.09 0.02 0.02 0.02 0.04 0.07 0.09 0.08 0.09 0.03 0.00 0.00 0.01 0.00 0.00 0.00 0.00 0.00 0.00 0.00 0.00 0.00 0.00 0.00 0.00 0.00 0.00 0.00 0.00 0.00 0.00 0.00 0.00 0.00 0.00 0.00 0.00 0.00 0.00 0.00 0.00 0.00 0.00
0.11 0.05 0.02 0.01 0.02 0.06 0.06 0.08 0.05 0.02 0.00 0.01 0.01 0.01 0.01 0.00 0.00 0.00 0.00 0.00 0.00 0.00 0.00 0.00 0.00 0.00 0.00 0.00 0.00 0.00 0.00 0.00 0.00 0.00 0.00 0.00 0.00 0.00 0.00 0.00 0.00 0.00 0.00
0.03 0.06 0.08 0.02 0.01 0.03 0.04 0.05 0.04 0.01 0.00 0.01 0.01 0.01 0.01 0.01 0.00 0.00 0.00 0.00 0.00 0.00 0.00 0.00 0.00 0.00 0.00 0.00 0.00 0.00 0.00 0.00 0.00 0.00 0.00 0.00 0.00 0.00 0.00 0.00 0.00 0.00 0.00
0.02 0.07 0.16 0.05 0.02 0.02 0.02 0.04 0.03 0.01 0.01 0.00 0.00 0.00 0.00 0.01 0.02 0.00 0.00 0.00 0.00 0.00 0.00 0.00 0.00 0.00 0.00 0.00 0.00 0.00 0.00 0.00 0.00 0.00 0.00 0.00 0.00 0.00 0.00 0.00 0.00 0.00 0.00
0.01 0.08 0.16 0.13 0.11 0.09 0.06 0.03 0.02 0.02 0.01 0.01 0.01 0.01 0.00 0.01 0.01 0.01 0.00 0.00 0.00 0.00 0.00 0.00 0.00 0.00 0.00 0.00 0.00 0.00 0.00 0.00 0.00 0.00 0.00 0.00 0.00 0.00 0.00 0.00 0.00 0.00 0.00
0.00 0.01 0.02 0.01 0.02 0.02 0.01 0.01 0.01 0.01 0.01 0.00 0.00 0.01 0.01 0.01 0.01 0.00 0.00 0.00 0.00 0.00 0.00 0.00 0.00 0.00 0.00 0.00 0.00 0.00 0.00 0.00 0.00 0.00 0.00 0.00 0.00 0.00 0.00 0.00 0.00 0.00 0.00
0.00 0.00 0.00 0.00 0.00 0.00 0.01 0.03 0.07 0.05 0.03 0.02 0.03 0.03 0.03 0.02 0.02 0.03 0.01 0.01 0.00 0.00 0.00 0.00 0.00 0.00 0.00 0.00 0.00 0.00 0.00 0.00 0.00 0.00 0.00 0.00 0.00 0.00 0.00 0.00 0.00 0.00 0.00
0.00 0.00 0.00 0.00 0.00 0.01 0.01 0.01 0.01 0.02 0.04 0.06 0.07 0.08 0.07 0.05 0.04 0.06 0.05 0.03 0.03 0.01 0.01 0.01 0.00 0.01 0.00 0.00 0.00 0.00 0.00 0.00 0.00 0.00 0.00 0.00 0.00 0.00 0.00 0.00 0.00 0.00 0.00
0.00 0.00 0.00 0.00 0.00 0.00 0.01 0.02 0.03 0.02 0.02 0.01 0.02 0.04 0.07 0.07 0.10 0.10 0.08 0.05 0.05 0.03 0.02 0.02 0.02 0.01 0.00 0.00 0.00 0.01 0.01 0.01 0.01 0.00 0.00 0.00 0.00 0.00 0.00 0.00 0.00 0.00 0.00
0.00 0.00 0.00 0.00 0.00 0.00 0.00 0.02 0.03 0.06 0.06 0.04 0.02 0.02 0.02 0.02 0.02 0.03 0.05 0.06 0.08 0.09 0.10 0.07 0.04 0.02 0.02 0.01 0.01 0.01 0.02 0.02 0.02 0.02 0.02 0.01 0.01 0.01 0.01 0.00 0.00 0.01 0.00
0.00 0.00 0.00 0.00 0.00 0.00 0.01 0.02 0.04 0.07 0.13 0.14 0.09 0.07 0.06 0.04 0.03 0.02 0.01 0.01 0.01 0.02 0.04 0.06 0.07 0.06 0.06 0.07 0.05 0.04 0.03 0.03 0.03 0.03 0.03 0.03 0.01 0.01 0.01 0.01 0.00 0.00 0.00
0.00 0.00 0.00 0.00 0.00 0.00 0.00 0.00 0.01 0.03 0.08 0.16 0.16 0.13 0.07 0.06 0.07 0.07 0.06 0.05 0.03 0.02 0.01 0.02 0.01 0.02 0.04 0.07 0.09 0.07 0.05 0.03 0.03 0.01 0.01 0.01 0.01 0.01 0.01 0.02 0.00 0.00 0.00
0.00 0.00 0.00 0.00 0.00 0.00 0.00 0.00 0.00 0.01 0.01 0.03 0.06 0.08 0.11 0.13 0.12 0.09 0.08 0.07 0.08 0.05 0.04 0.04 0.03 0.03 0.04 0.17 0.10 0.06 0.03 0.05 0.07 0.07 0.05 0.03 0.05 0.04 0.10 0.07 0.04 0.04 0.02
0.00 0.00 0.00 0.00 0.00 0.00 0.00 0.00 0.00 0.00 0.00 0.00 0.01 0.01 0.03 0.06 0.12 0.14 0.16 0.15 0.12 0.07 0.04 0.03 0.04 0.05 0.07 0.28 0.09 0.07 0.05 0.02 0.03 0.04 0.06 0.08 0.09 0.18 0.11 0.15 0.19 0.16 0.20
0.00 0.00 0.00 0.00 0.00 0.00 0.00 0.00 0.00 0.00 0.00 0.00 0.00 0.00 0.00 0.00 0.00 0.01 0.06 0.12 0.14 0.15 0.13 0.11 0.09 0.09 0.18 0.45 0.19 0.15 0.09 0.05 0.04 0.06 0.09 0.13 0.14 0.26 0.35 0.24 0.17 0.19 0.25
0.00 0.00 0.00 0.00 0.00 0.00 0.00 0.00 0.00 0.00 0.00 0.00 0.00 0.00 0.00 0.00 0.00 0.00 0.00 0.00 0.03 0.06 0.06 0.08 0.08 0.08 0.12 0.46 0.29 0.26 0.14 0.14 0.20 0.24 0.29 0.38 0.35 0.62 0.80 0.61 0.47 0.51 0.47
0.00 0.00 0.00 0.00 0.00 0.00 0.00 0.00 0.00 0.00 0.00 0.00 0.00 0.00 0.00 0.00 0.00 0.00 0.00 0.00 0.00 0.00 0.02 0.04 0.04 0.05 0.06 0.17 0.15 0.13 0.09 0.12 0.12 0.14 0.15 0.35 0.27 0.36 0.42 0.35 0.26 0.28 0.25
0.00 0.00 0.00 0.00 0.00 0.00 0.00 0.00 0.00 0.00 0.00 0.00 0.00 0.00 0.00 0.00 0.00 0.00 0.00 0.00 0.00 0.00 0.00 0.01 0.02 0.02 0.05 0.09 0.17 0.13 0.08 0.08 0.13 0.14 0.15 0.16 0.31 0.27 0.26 0.26 0.18 0.21 0.25
0.00 0.00 0.00 0.00 0.00 0.00 0.00 0.00 0.00 0.00 0.00 0.00 0.00 0.00 0.00 0.00 0.00 0.00 0.00 0.00 0.00 0.00 0.00 0.00 0.01 0.01 0.03 0.08 0.11 0.08 0.08 0.10 0.09 0.10 0.12 0.16 0.40 0.31 0.26 0.22 0.18 0.22 0.20
0.00 0.00 0.00 0.00 0.00 0.00 0.00 0.00 0.00 0.00 0.00 0.00 0.00 0.00 0.00 0.00 0.00 0.00 0.00 0.00 0.00 0.00 0.01 0.01 0.02 0.01 0.01 0.03 0.09 0.05 0.04 0.05 0.03 0.02 0.07 0.19 0.31 0.25 0.18 0.14 0.13 0.13 0.08
0.01 0.01 0.01 0.00 0.00 0.00 0.00 0.00 0.00 0.00 0.00 0.00 0.00 0.00 0.00 0.00 0.00 0.00 0.00 0.00 0.00 0.01 0.01 0.01 0.02 0.01 0.02 0.03 0.04 0.05 0.05 0.05 0.05 0.05 0.11 0.17 0.20 0.19 0.12 0.13 0.11 0.06 0.04
0.00 0.00 0.00 0.01 0.00 0.00 0.00 0.00 0.00 0.00 0.00 0.00 0.00 0.00 0.00 0.00 0.00 0.00 0.00 0.00 0.00 0.02 0.02 0.01 0.01 0.02 0.03 0.04 0.07 0.08 0.06 0.05 0.09 0.13 0.10 0.16 0.13 0.10 0.08 0.08 0.07 0.07 0.10
0.00 0.00 0.00 0.00 0.00 0.00 0.00 0.00 0.00 0.00 0.00 0.00 0.00 0.00 0.00 0.00 0.00 0.00 0.00 0.01 0.01 0.02 0.02 0.02 0.02 0.03 0.06 0.10 0.11 0.09 0.08 0.10 0.14 0.13 0.05 0.04 0.03 0.04 0.04 0.07 0.11 0.13 0.16

GFSMW_prec_precacc24_357.txt.gz
Total_Precipitation_Accumulation
0.05 0.07 0.08 0.09 0.30 0.36 0.42 0.33 0.49 0.24 0.05 0.03 0.02 0.00 0.00 0.00 0.00 0.00 0.00 0.00 0.00 0.00 0.00 0.00 0.00 0.00 0.00 0.00 0.00 0.00 0.00 0.00 0.00 0.00 0.00 0.00 0.00 0.00 0.00 0.00 0.00 0.00 0.00
0.04 0.06 0.09 0.06 0.14 0.20 0.30 0.31 0.27 0.16 0.09 0.04 0.02 0.00 0.00 0.00 0.00 0.00 0.00 0.00 0.00 0.00 0.00 0.00 0.00 0.00 0.00 0.00 0.00 0.00 0.00 0.00 0.00 0.00 0.00 0.00 0.00 0.00 0.00 0.00 0.00 0.00 0.00
0.05 0.03 0.06 0.06 0.07 0.10 0.15 0.23 0.24 0.13 0.10 0.09 0.03 0.00 0.00 0.00 0.00 0.00 0.00 0.00 0.00 0.00 0.00 0.00 0.00 0.00 0.00 0.00 0.00 0.00 0.00 0.00 0.00 0.00 0.00 0.00 0.00 0.00 0.00 0.00 0.00 0.00 0.00
0.09 0.02 0.02 0.03 0.05 0.08 0.16 0.23 0.28 0.15 0.14 0.06 0.03 0.00 0.00 0.00 0.00 0.00 0.00 0.00 0.00 0.00 0.00 0.00 0.00 0.00 0.00 0.00 0.00 0.00 0.00 0.00 0.00 0.00 0.00 0.00 0.00 0.00 0.00 0.00 0.00 0.00 0.00
0.11 0.05 0.02 0.01 0.03 0.07 0.09 0.14 0.20 0.16 0.11 0.10 0.03 0.02 0.01 0.00 0.00 0.00 0.00 0.00 0.00 0.00 0.00 0.00 0.00 0.00 0.00 0.00 0.00 0.00 0.00 0.00 0.00 0.00 0.00 0.00 0.00 0.00 0.00 0.00 0.00 0.00 0.00
0.03 0.06 0.08 0.02 0.02 0.05 0.07 0.07 0.07 0.10 0.08 0.03 0.02 0.02 0.02 0.01 0.00 0.00 0.00 0.00 0.00 0.00 0.00 0.00 0.00 0.00 0.00 0.00 0.00 0.00 0.00 0.00 0.00 0.00 0.00 0.00 0.00 0.00 0.00 0.00 0.00 0.00 0.00
0.02 0.07 0.16 0.05 0.03 0.03 0.03 0.04 0.04 0.06 0.03 0.01 0.01 0.00 0.01 0.01 0.02 0.00 0.00 0.00 0.00 0.00 0.00 0.00 0.00 0.00 0.00 0.00 0.00 0.00 0.00 0.00 0.00 0.00 0.00 0.00 0.00 0.00 0.00 0.00 0.00 0.00 0.00
0.01 0.08 0.16 0.13 0.11 0.09 0.07 0.03 0.03 0.03 0.01 0.00 0.00 0.00 0.00 0.00 0.01 0.01 0.00 0.00 0.00 0.00 0.00 0.00 0.00 0.00 0.00 0.00 0.00 0.00 0.00 0.00 0.00 0.00 0.00 0.00 0.00 0.00 0.00 0.00 0.00 0.00 0.00
0.00 0.01 0.02 0.01 0.02 0.02 0.01 0.01 0.02 0.02 0.01 0.02 0.03 0.01 0.01 0.00 0.01 0.00 0.00 0.00 0.00 0.00 0.00 0.00 0.00 0.00 0.00 0.00 0.00 0.00 0.00 0.00 0.00 0.00 0.00 0.00 0.00 0.00 0.00 0.00 0.00 0.00 0.00
0.00 0.00 0.00 0.00 0.00 0.00 0.01 0.03 0.07 0.05 0.04 0.03 0.06 0.04 0.03 0.02 0.02 0.03 0.01 0.01 0.00 0.00 0.00 0.00 0.00 0.00 0.00 0.00 0.01 0.01 0.01 0.00 0.00 0.00 0.00 0.00 0.00 0.00 0.00 0.00 0.00 0.00 0.00
0.00 0.00 0.00 0.00 0.00 0.01 0.01 0.01 0.02 0.03 0.05 0.06 0.08 0.09 0.08 0.06 0.06 0.08 0.07 0.04 0.04 0.02 0.02 0.01 0.00 0.01 0.00 0.00 0.01 0.01 0.01 0.00 0.01 0.00 0.00 0.00 0.00 0.00 0.00 0.00 0.00 0.00 0.00
0.00 0.00 0.00 0.00 0.00 0.00 0.01 0.02 0.03 0.03 0.03 0.03 0.03 0.06 0.08 0.09 0.13 0.15 0.13 0.11 0.08 0.06 0.07 0.06 0.04 0.02 0.01 0.01 0.01 0.03 0.02 0.02 0.03 0.02 0.01 0.00 0.01 0.00 0.01 0.01 0.01 0.01 0.01
0.00 0.00 0.00 0.00 0.00 0.00 0.00 0.02 0.04 0.08 0.09 0.07 0.06 0.06 0.07 0.08 0.07 0.08 0.09 0.11 0.14 0.16 0.17 0.14 0.08 0.06 0.06 0.05 0.04 0.04 0.03 0.02 0.03 0.02 0.02 0.02 0.03 0.03 0.03 0.02 0.02 0.03 0.03
0.00 0.00 0.00 0.00 0.00 0.00 0.01 0.02 0.06 0.10 0.16 0.15 0.11 0.11 0.10 0.10 0.12 0.14 0.14 0.12 0.10 0.08 0.09 0.13 0.14 0.12 0.10 0.10 0.08 0.07 0.07 0.07 0.07 0.09 0.09 0.08 0.08 0.06 0.07 0.05 0.03 0.05 0.06
0.03 0.03 0.03 0.02 0.02 0.03 0.05 0.04 0.04 0.06 0.12 0.19 0.18 0.14 0.09 0.08 0.12 0.14 0.13 0.12 0.11 0.09 0.07 0.07 0.06 0.07 0.07 0.10 0.12 0.10 0.12 0.12 0.10 0.09 0.08 0.08 0.10 0.08 0.07 0.05 0.02 0.02 0.03
0.04 0.04 0.05 0.06 0.08 0.11 0.13 0.13 0.12 0.08 0.04 0.07 0.12 0.12 0.12 0.15 0.15 0.12 0.10 0.11 0.12 0.12 0.13 0.13 0.13 0.15 0.15 0.33 0.19 0.13 0.09 0.09 0.12 0.12 0.09 0.07 0.14 0.11 0.20 0.17 0.14 0.15 0.13
0.00 0.00 0.02 0.04 0.07 0.09 0.11 0.13 0.13 0.12 0.07 0.05 0.03 0.03 0.05 0.06 0.08 0.08 0.08 0.11 0.13 0.11 0.11 0.10 0.10 0.12 0.14 0.45 0.18 0.15 0.09 0.08 0.11 0.10 0.11 0.13 0.16 0.32 0.17 0.25 0.29 0.26 0.39
0.00 0.00 0.00 0.00 0.01 0.00 0.01 0.01 0.02 0.03 0.03 0.02 0.02 0.01 0.00 0.01 0.00 0.01 0.02 0.03 0.06 0.08 0.11 0.10 0.10 0.10 0.19 0.51 0.20 0.14 0.08 0.03 0.03 0.04 0.08 0.11 0.13 0.29 0.41 0.30 0.28 0.31 0.43
0.00 0.00 0.00 0.01 0.01 0.01 0.01 0.00 0.00 0.00 0.00 0.00 0.00 0.00 0.00 0.00 0.00 0.00 0.00 0.00 0.00 0.00 0.01 0.02 0.03 0.05 0.11 0.45 0.27 0.19 0.08 0.07 0.11 0.16 0.21 0.33 0.31 0.59 0.80 0.59 0.46 0.49 0.47
0.00 0.00 0.00 0.00 0.00 0.00 0.00 0.00 0.00 0.00 0.00 0.00 0.00 0.00 0.00 0.00 0.00 0.00 0.00 0.00 0.00 0.00 0.00 0.00 0.00 0.01 0.01 0.10 0.08 0.07 0.03 0.04 0.03 0.05 0.06 0.22 0.14 0.18 0.25 0.23 0.15 0.18 0.16
0.00 0.00 0.00 0.00 0.00 0.00 0.00 0.00 0.00 0.00 0.00 0.00 0.00 0.00 0.00 0.00 0.00 0.00 0.00 0.00 0.00 0.00 0.00 0.00 0.00 0.00 0.00 0.00 0.01 0.02 0.01 0.01 0.02 0.03 0.04 0.05 0.14 0.12 0.12 0.14 0.10 0.13 0.16
0.00 0.00 0.00 0.00 0.00 0.00 0.00 0.00 0.00 0.00 0.00 0.00 0.00 0.00 0.00 0.00 0.00 0.00 0.00 0.00 0.00 0.00 0.00 0.00 0.00 0.00 0.00 0.00 0.00 0.01 0.01 0.01 0.00 0.01 0.01 0.03 0.14 0.11 0.09 0.07 0.08 0.13 0.13
0.00 0.00 0.00 0.00 0.00 0.00 0.00 0.00 0.00 0.00 0.00 0.00 0.00 0.00 0.00 0.00 0.00 0.00 0.00 0.00 0.00 0.00 0.00 0.00 0.00 0.00 0.00 0.00 0.00 0.01 0.01 0.01 0.01 0.00 0.01 0.03 0.06 0.06 0.05 0.04 0.04 0.07 0.04
0.01 0.01 0.01 0.00 0.00 0.00 0.00 0.00 0.00 0.00 0.00 0.00 0.00 0.00 0.00 0.00 0.00 0.00 0.00 0.00 0.00 0.00 0.00 0.00 0.00 0.00 0.00 0.00 0.00 0.00 0.00 0.01 0.01 0.01 0.01 0.03 0.03 0.04 0.03 0.04 0.04 0.03 0.01
0.00 0.00 0.00 0.01 0.00 0.00 0.00 0.00 0.00 0.00 0.00 0.00 0.00 0.00 0.00 0.00 0.00 0.00 0.00 0.00 0.00 0.00 0.00 0.00 0.00 0.00 0.00 0.00 0.00 0.01 0.01 0.01 0.02 0.03 0.01 0.02 0.01 0.01 0.01 0.01 0.01 0.02 0.04
0.00 0.00 0.00 0.00 0.00 0.00 0.00 0.00 0.00 0.00 0.00 0.00 0.00 0.00 0.00 0.00 0.00 0.00 0.00 0.00 0.00 0.00 0.00 0.00 0.00 0.00 0.01 0.01 0.01 0.01 0.02 0.03 0.04 0.03 0.00 0.00 0.00 0.01 0.01 0.01 0.02 0.02 0.06

GFSMW_prec_precacc24_360.txt.gz
Total_Precipitation_Accumulation
0.05 0.08 0.09 0.10 0.31 0.37 0.42 0.33 0.49 0.24 0.05 0.03 0.02 0.00 0.00 0.00 0.00 0.00 0.00 0.00 0.00 0.00 0.00 0.00 0.00 0.00 0.00 0.00 0.00 0.00 0.00 0.00 0.00 0.00 0.00 0.00 0.00 0.00 0.00 0.00 0.00 0.00 0.00
0.05 0.07 0.09 0.06 0.14 0.21 0.30 0.31 0.27 0.16 0.09 0.03 0.02 0.00 0.00 0.00 0.00 0.00 0.00 0.00 0.00 0.00 0.00 0.00 0.00 0.00 0.00 0.00 0.00 0.00 0.00 0.00 0.00 0.00 0.00 0.00 0.00 0.00 0.00 0.00 0.00 0.00 0.00
0.05 0.04 0.06 0.05 0.07 0.10 0.15 0.24 0.24 0.13 0.10 0.09 0.03 0.00 0.00 0.00 0.00 0.00 0.00 0.00 0.00 0.00 0.00 0.00 0.00 0.00 0.00 0.00 0.00 0.00 0.00 0.00 0.00 0.00 0.00 0.00 0.00 0.00 0.00 0.00 0.00 0.00 0.00
0.09 0.02 0.03 0.03 0.05 0.09 0.16 0.26 0.32 0.16 0.15 0.06 0.03 0.00 0.00 0.00 0.00 0.00 0.00 0.00 0.00 0.00 0.00 0.00 0.00 0.00 0.00 0.00 0.00 0.00 0.00 0.00 0.00 0.00 0.00 0.00 0.00 0.00 0.00 0.00 0.00 0.00 0.00
0.11 0.05 0.02 0.01 0.03 0.08 0.11 0.17 0.24 0.20 0.13 0.16 0.12 0.03 0.01 0.00 0.00 0.00 0.00 0.00 0.00 0.00 0.00 0.00 0.00 0.00 0.00 0.00 0.00 0.00 0.00 0.00 0.00 0.00 0.00 0.00 0.00 0.00 0.00 0.00 0.00 0.00 0.00
0.03 0.06 0.08 0.02 0.02 0.05 0.09 0.10 0.11 0.14 0.13 0.11 0.17 0.17 0.06 0.02 0.01 0.00 0.00 0.00 0.00 0.00 0.00 0.00 0.00 0.00 0.00 0.00 0.00 0.00 0.00 0.00 0.00 0.00 0.00 0.00 0.00 0.00 0.00 0.00 0.00 0.00 0.00
0.02 0.07 0.16 0.05 0.03 0.03 0.05 0.06 0.06 0.10 0.11 0.12 0.09 0.07 0.12 0.07 0.05 0.00 0.00 0.00 0.00 0.00 0.00 0.00 0.00 0.00 0.00 0.00 0.00 0.00 0.00 0.00 0.00 0.00 0.00 0.00 0.00 0.00 0.00 0.00 0.00 0.00 0.00
0.01 0.08 0.16 0.13 0.12 0.10 0.07 0.04 0.04 0.06 0.08 0.09 0.12 0.07 0.04 0.04 0.02 0.01 0.00 0.00 0.00 0.00 0.00 0.00 0.00 0.00 0.00 0.00 0.00 0.00 0.00 0.00 0.00 0.00 0.00 0.00 0.00 0.00 0.00 0.00 0.00 0.00 0.00
0.00 0.00 0.01 0.01 0.02 0.02 0.02 0.02 0.02 0.03 0.05 0.09 0.12 0.07 0.02 0.02 0.01 0.00 0.00 0.00 0.00 0.00 0.00 0.00 0.00 0.00 0.00 0.00 0.00 0.00 0.00 0.00 0.00 0.00 0.00 0.00 0.00 0.00 0.00 0.00 0.00 0.00 0.00
0.00 0.00 0.00 0.00 0.00 0.00 0.01 0.03 0.07 0.06 0.05 0.07 0.12 0.10 0.10 0.06 0.05 0.04 0.01 0.01 0.00 0.00 0.00 0.00 0.00 0.00 0.00 0.00 0.01 0.01 0.01 0.00 0.00 0.00 0.00 0.00 0.00 0.00 0.00 0.00 0.00 0.00 0.00
0.00 0.00 0.00 0.00 0.00 0.01 0.01 0.01 0.03 0.04 0.05 0.06 0.09 0.09 0.12 0.12 0.13 0.12 0.07 0.05 0.04 0.02 0.01 0.01 0.00 0.01 0.00 0.00 0.01 0.01 0.01 0.00 0.01 0.00 0.00 0.00 0.00 0.00 0.00 0.00 0.00 0.00 0.00
0.00 0.00 0.00 0.00 0.00 0.00 0.01 0.03 0.04 0.04 0.03 0.03 0.04 0.05 0.08 0.11 0.15 0.16 0.14 0.14 0.11 0.08 0.07 0.06 0.05 0.02 0.02 0.02 0.02 0.03 0.02 0.02 0.03 0.02 0.01 0.00 0.01 0.00 0.01 0.01 0.01 0.02 0.02
0.00 0.00 0.00 0.00 0.00 0.00 0.00 0.02 0.04 0.08 0.09 0.07 0.06 0.07 0.07 0.08 0.09 0.10 0.12 0.16 0.21 0.25 0.24 0.17 0.11 0.08 0.08 0.08 0.06 0.06 0.05 0.03 0.03 0.03 0.03 0.03 0.04 0.03 0.05 0.04 0.03 0.04 0.06
0.00 0.00 0.00 0.00 0.00 0.00 0.00 0.01 0.05 0.10 0.16 0.15 0.11 0.11 0.10 0.10 0.12 0.16 0.18 0.17 0.15 0.16 0.21 0.25 0.25 0.21 0.18 0.16 0.13 0.12 0.13 0.12 0.13 0.15 0.13 0.12 0.11 0.07 0.07 0.06 0.04 0.07 0.08
0.03 0.03 0.03 0.02 0.02 0.03 0.06 0.05 0.04 0.05 0.12 0.19 0.18 0.14 0.09 0.08 0.14 0.16 0.16 0.16 0.16 0.14 0.13 0.15 0.16 0.17 0.15 0.15 0.16 0.17 0.17 0.16 0.15 0.13 0.11 0.11 0.15 0.12 0.08 0.06 0.03 0.03 0.03
0.04 0.04 0.05 0.06 0.08 0.11 0.14 0.18 0.15 0.11 0.07 0.10 0.13 0.13 0.13 0.15 0.17 0.16 0.16 0.16 0.19 0.20 0.20 0.20 0.18 0.19 0.20 0.44 0.32 0.24 0.16 0.19 0.25 0.25 0.18 0.13 0.23 0.20 0.28 0.21 0.21 0.22 0.19
0.00 0.00 0.02 0.04 0.07 0.09 0.11 0.14 0.15 0.16 0.13 0.10 0.06 0.05 0.07 0.08 0.09 0.09 0.09 0.12 0.13 0.12 0.14 0.13 0.12 0.13 0.16 0.48 0.20 0.16 0.11 0.11 0.14 0.15 0.18 0.22 0.25 0.42 0.21 0.32 0.38 0.33 0.47
0.00 0.00 0.00 0.00 0.01 0.01 0.01 0.02 0.02 0.04 0.05 0.06 0.04 0.03 0.03 0.03 0.02 0.02 0.02 0.04 0.04 0.06 0.08 0.09 0.10 0.11 0.21 0.54 0.20 0.13 0.07 0.03 0.04 0.06 0.10 0.13 0.13 0.28 0.39 0.27 0.24 0.29 0.40
0.00 0.00 0.00 0.01 0.02 0.02 0.01 0.02 0.02 0.03 0.03 0.03 0.03 0.02 0.01 0.02 0.02 0.01 0.01 0.00 0.00 0.01 0.02 0.02 0.03 0.05 0.11 0.44 0.26 0.17 0.07 0.06 0.10 0.15 0.20 0.31 0.30 0.58 0.77 0.57 0.43 0.42 0.38
0.00 0.00 0.00 0.00 0.00 0.00 0.00 0.01 0.01 0.02 0.02 0.02 0.01 0.01 0.00 0.01 0.01 0.01 0.00 0.00 0.00 0.00 0.00 0.00 0.00 0.01 0.01 0.09 0.06 0.04 0.01 0.01 0.02 0.04 0.05 0.18 0.12 0.15 0.21 0.21 0.15 0.16 0.13
0.00 0.00 0.00 0.00 0.00 0.00 0.00 0.00 0.00 0.01 0.00 0.00 0.00 0.00 0.00 0.00 0.00 0.00 0.00 0.00 0.00 0.00 0.00 0.00 0.00 0.00 0.00 0.00 0.01 0.01 0.00 0.00 0.00 0.00 0.01 0.02 0.06 0.06 0.07 0.09 0.07 0.09 0.12
0.00 0.00 0.00 0.00 0.00 0.00 0.00 0.00 0.00 0.00 0.00 0.00 0.00 0.00 0.00 0.00 0.00 0.00 0.00 0.00 0.00 0.00 0.00 0.00 0.00 0.00 0.00 0.00 0.00 0.00 0.00 0.00 0.00 0.00 0.00 0.00 0.04 0.03 0.03 0.04 0.03 0.06 0.06
0.00 0.00 0.00 0.00 0.00 0.00 0.00 0.00 0.00 0.00 0.00 0.00 0.00 0.00 0.00 0.00 0.00 0.00 0.00 0.00 0.00 0.00 0.00 0.00 0.00 0.00 0.00 0.00 0.00 0.00 0.00 0.00 0.00 0.00 0.00 0.01 0.02 0.02 0.02 0.02 0.02 0.03 0.01
0.00 0.00 0.00 0.00 0.00 0.00 0.00 0.00 0.00 0.00 0.00 0.00 0.00 0.00 0.00 0.00 0.00 0.00 0.00 0.00 0.00 0.00 0.00 0.00 0.00 0.00 0.00 0.00 0.00 0.00 0.00 0.00 0.00 0.00 0.01 0.02 0.01 0.01 0.01 0.02 0.02 0.01 0.00
0.00 0.00 0.00 0.00 0.00 0.00 0.00 0.00 0.00 0.00 0.00 0.00 0.00 0.00 0.00 0.00 0.00 0.00 0.00 0.00 0.00 0.00 0.00 0.00 0.00 0.00 0.00 0.00 0.00 0.01 0.01 0.01 0.01 0.01 0.00 0.01 0.00 0.00 0.00 0.00 0.00 0.00 0.01
0.00 0.00 0.00 0.00 0.00 0.00 0.00 0.00 0.00 0.00 0.00 0.00 0.00 0.00 0.00 0.00 0.00 0.00 0.00 0.00 0.00 0.00 0.00 0.00 0.00 0.00 0.01 0.01 0.01 0.01 0.01 0.01 0.02 0.01 0.00 0.00 0.00 0.00 0.00 0.00 0.01 0.00 0.04

GFSMW_prec_precacc24_363.txt.gz
Total_Precipitation_Accumulation
0.08 0.09 0.08 0.10 0.31 0.37 0.42 0.33 0.49 0.24 0.05 0.04 0.02 0.00 0.00 0.00 0.00 0.00 0.00 0.00 0.00 0.00 0.00 0.00 0.00 0.00 0.00 0.00 0.00 0.00 0.00 0.00 0.00 0.00 0.00 0.00 0.00 0.00 0.00 0.00 0.00 0.00 0.00
0.05 0.06 0.09 0.07 0.14 0.21 0.30 0.31 0.27 0.16 0.09 0.03 0.02 0.00 0.00 0.00 0.00 0.00 0.00 0.00 0.00 0.00 0.00 0.00 0.00 0.00 0.00 0.00 0.00 0.00 0.00 0.00 0.00 0.00 0.00 0.00 0.00 0.00 0.00 0.00 0.00 0.00 0.00
0.02 0.03 0.06 0.05 0.08 0.10 0.15 0.24 0.24 0.13 0.10 0.09 0.03 0.00 0.00 0.00 0.00 0.00 0.00 0.00 0.00 0.00 0.00 0.00 0.00 0.00 0.00 0.00 0.00 0.00 0.00 0.00 0.00 0.00 0.00 0.00 0.00 0.00 0.00 0.00 0.00 0.00 0.00
0.08 0.02 0.02 0.03 0.04 0.08 0.16 0.26 0.32 0.16 0.15 0.06 0.03 0.00 0.00 0.00 0.00 0.00 0.00 0.00 0.00 0.00 0.00 0.00 0.00 0.00 0.00 0.00 0.00 0.00 0.00 0.00 0.00 0.00 0.00 0.00 0.00 0.00 0.00 0.00 0.00 0.00 0.00
0.11 0.05 0.02 0.01 0.03 0.08 0.10 0.17 0.24 0.20 0.13 0.17 0.12 0.03 0.01 0.00 0.00 0.00 0.00 0.00 0.00 0.00 0.00 0.00 0.00 0.00 0.00 0.00 0.00 0.00 0.00 0.00 0.00 0.00 0.00 0.00 0.00 0.00 0.00 0.00 0.00 0.00 0.00
0.03 0.05 0.09 0.03 0.02 0.06 0.10 0.10 0.11 0.15 0.14 0.12 0.18 0.20 0.07 0.03 0.02 0.00 0.00 0.00 0.00 0.00 0.00 0.00 0.00 0.00 0.00 0.00 0.00 0.00 0.00 0.00 0.00 0.00 0.00 0.00 0.00 0.00 0.00 0.00 0.00 0.00 0.00
0.06 0.05 0.14 0.06 0.03 0.04 0.06 0.07 0.07 0.11 0.12 0.13 0.10 0.14 0.22 0.17 0.11 0.03 0.00 0.00 0.00 0.00 0.00 0.00 0.00 0.00 0.00 0.00 0.00 0.00 0.00 0.00 0.00 0.00 0.00 0.00 0.00 0.00 0.00 0.00 0.00 0.00 0.00
0.04 0.05 0.08 0.10 0.12 0.10 0.08 0.05 0.05 0.07 0.09 0.10 0.14 0.13 0.22 0.25 0.16 0.12 0.04 0.00 0.00 0.00 0.00 0.00 0.00 0.00 0.00 0.00 0.00 0.00 0.00 0.00 0.00 0.00 0.00 0.00 0.00 0.00 0.00 0.00 0.00 0.00 0.00
0.01 0.00 0.00 0.00 0.02 0.02 0.02 0.03 0.04 0.05 0.07 0.12 0.16 0.18 0.22 0.22 0.11 0.04 0.05 0.02 0.00 0.00 0.00 0.00 0.00 0.00 0.00 0.00 0.00 0.00 0.00 0.00 0.00 0.00 0.00 0.00 0.00 0.00 0.00 0.00 0.00 0.00 0.00
0.00 0.00 0.00 0.00 0.00 0.00 0.01 0.04 0.08 0.06 0.05 0.09 0.14 0.16 0.26 0.39 0.25 0.08 0.02 0.01 0.01 0.00 0.00 0.00 0.00 0.00 0.00 0.00 0.01 0.01 0.01 0.00 0.00 0.00 0.00 0.00 0.00 0.00 0.00 0.00 0.00 0.00 0.00
0.00 0.00 0.00 0.00 0.00 0.01 0.01 0.01 0.03 0.04 0.06 0.07 0.09 0.12 0.17 0.21 0.21 0.16 0.09 0.05 0.04 0.02 0.01 0.01 0.00 0.01 0.00 0.00 0.01 0.01 0.01 0.00 0.01 0.00 0.00 0.00 0.00 0.00 0.00 0.00 0.00 0.00 0.01
0.00 0.00 0.00 0.00 0.00 0.00 0.01 0.03 0.04 0.04 0.03 0.03 0.05 0.08 0.09 0.12 0.16 0.19 0.18 0.18 0.12 0.08 0.07 0.06 0.05 0.02 0.02 0.02 0.02 0.03 0.02 0.02 0.03 0.02 0.01 0.00 0.01 0.00 0.01 0.01 0.02 0.03 0.04
0.00 0.00 0.00 0.00 0.00 0.00 0.00 0.02 0.04 0.08 0.09 0.07 0.06 0.08 0.09 0.09 0.09 0.12 0.20 0.23 0.23 0.27 0.28 0.20 0.12 0.09 0.09 0.09 0.09 0.10 0.08 0.06 0.05 0.04 0.03 0.03 0.05 0.04 0.07 0.05 0.05 0.06 0.07
0.00 0.00 0.00 0.00 0.00 0.00 0.00 0.01 0.02 0.06 0.14 0.15 0.10 0.11 0.10 0.09 0.13 0.18 0.23 0.24 0.22 0.20 0.25 0.31 0.31 0.27 0.22 0.18 0.16 0.17 0.18 0.16 0.17 0.21 0.22 0.26 0.28 0.19 0.11 0.07 0.06 0.09 0.09
0.03 0.03 0.03 0.02 0.02 0.03 0.06 0.05 0.04 0.04 0.10 0.16 0.14 0.13 0.09 0.08 0.13 0.15 0.16 0.18 0.20 0.19 0.16 0.18 0.21 0.22 0.21 0.21 0.22 0.24 0.25 0.25 0.23 0.18 0.14 0.14 0.20 0.16 0.12 0.10 0.05 0.05 0.05
0.04 0.04 0.05 0.06 0.08 0.11 0.14 0.18 0.15 0.11 0.07 0.09 0.11 0.11 0.12 0.15 0.16 0.17 0.16 0.16 0.20 0.24 0.27 0.24 0.21 0.22 0.24 0.50 0.38 0.31 0.23 0.27 0.32 0.31 0.21 0.16 0.27 0.22 0.33 0.29 0.26 0.28 0.26
0.00 0.00 0.02 0.04 0.07 0.09 0.11 0.14 0.15 0.16 0.13 0.10 0.06 0.04 0.06 0.08 0.09 0.08 0.09 0.11 0.14 0.13 0.16 0.18 0.22 0.27 0.35 0.66 0.28 0.21 0.13 0.13 0.17 0.18 0.21 0.25 0.28 0.45 0.22 0.38 0.46 0.40 0.52
0.00 0.00 0.00 0.00 0.01 0.01 0.01 0.02 0.03 0.05 0.06 0.08 0.06 0.05 0.05 0.05 0.03 0.02 0.03 0.04 0.05 0.06 0.07 0.09 0.10 0.11 0.23 0.55 0.21 0.15 0.08 0.06 0.07 0.10 0.11 0.14 0.14 0.25 0.36 0.24 0.23 0.28 0.39
0.00 0.00 0.00 0.01 0.02 0.02 0.01 0.02 0.02 0.04 0.04 0.05 0.06 0.07 0.05 0.05 0.04 0.03 0.03 0.02 0.01 0.02 0.03 0.04 0.05 0.06 0.12 0.43 0.25 0.16 0.06 0.07 0.12 0.16 0.20 0.30 0.29 0.55 0.71 0.53 0.41 0.40 0.37
0.00 0.00 0.00 0.00 0.00 0.00 0.00 0.01 0.02 0.03 0.03 0.03 0.03 0.04 0.04 0.06 0.07 0.05 0.04 0.03 0.04 0.04 0.04 0.05 0.05 0.04 0.03 0.12 0.08 0.05 0.01 0.01 0.02 0.03 0.04 0.15 0.10 0.13 0.17 0.16 0.10 0.10 0.08
0.00 0.00 0.00 0.00 0.00 0.00 0.00 0.01 0.02 0.02 0.02 0.02 0.02 0.02 0.02 0.03 0.02 0.02 0.03 0.02 0.02 0.01 0.01 0.02 0.02 0.02 0.01 0.01 0.02 0.01 0.00 0.00 0.00 0.00 0.01 0.01 0.03 0.03 0.05 0.05 0.03 0.03 0.04
0.00 0.00 0.00 0.00 0.00 0.00 0.00 0.01 0.02 0.01 0.02 0.02 0.02 0.01 0.01 0.01 0.01 0.01 0.01 0.00 0.00 0.00 0.00 0.00 0.00 0.00 0.00 0.00 0.00 0.00 0.00 0.00 0.00 0.00 0.00 0.00 0.01 0.01 0.01 0.02 0.01 0.02 0.03
0.00 0.00 0.00 0.00 0.00 0.00 0.00 0.00 0.00 0.00 0.00 0.00 0.00 0.00 0.00 0.00 0.00 0.00 0.00 0.00 0.00 0.00 0.00 0.00 0.00 0.00 0.00 0.00 0.00 0.00 0.00 0.00 0.00 0.00 0.00 0.00 0.01 0.01 0.01 0.01 0.01 0.02 0.01
0.00 0.00 0.00 0.00 0.00 0.00 0.00 0.00 0.00 0.00 0.00 0.00 0.00 0.00 0.00 0.00 0.00 0.00 0.00 0.00 0.00 0.00 0.00 0.00 0.00 0.00 0.00 0.00 0.00 0.00 0.00 0.00 0.00 0.00 0.01 0.01 0.01 0.01 0.00 0.01 0.01 0.00 0.00
0.00 0.00 0.00 0.00 0.00 0.00 0.00 0.00 0.00 0.00 0.00 0.00 0.00 0.00 0.00 0.00 0.00 0.00 0.00 0.00 0.00 0.00 0.00 0.00 0.00 0.00 0.00 0.00 0.00 0.01 0.01 0.01 0.00 0.01 0.00 0.00 0.00 0.00 0.00 0.00 0.00 0.00 0.00
0.00 0.00 0.00 0.00 0.00 0.00 0.00 0.00 0.00 0.00 0.00 0.00 0.00 0.00 0.00 0.00 0.00 0.00 0.00 0.00 0.00 0.00 0.00 0.00 0.00 0.00 0.00 0.00 0.00 0.00 0.01 0.01 0.01 0.00 0.00 0.00 0.00 0.00 0.00 0.00 0.00 0.00 0.02